Погода в Троицком

Россия / Курская область     51°36′57″N   37°31′51″E
В апреле 2022 года жителям России запретили посещать сайт meteo.paraplan.net по решению Генеральной прокуратуры. Аудитория сайта уменьшилась в 10 раз. Владельцы сайта не видят смысла в поддержке погодного сервера в таких условиях. Сайт будет закрыт в октябре.
темп.,
°C
ветер,
м/с
пор.,
м/с
влажн.,
%
обл.,
%
осадки,
мм/ч
давл.,
гПа
погр.,
м
30 сентября, пт
пт3000:00+12ююв3389100 0.0 101539
03:00+12ююв3590100 0.0 101694
06:00+12ююв3593100 0.0 1016108
09:00+13ю2687100 0.1 1016213
12:00+17ююв487492 0.4 1017507
15:00+19ююз596493 0.4 1016255
18:00+18ю467219 0.0 101694
21:00+15ю3581100 0.4 101793
1 октября, сб
сб100:00+14ю3993100 2.8 1016286
03:00+14ю3695100 3.7 1016158
06:00+13ююз3597100 0.0 1016111
09:00+16ююз478999 1.7 1016277
12:00+20юз56705 1.0 1015773
15:00+22юз6857100 1.0 10141252
18:00+19юз41173100 0.1 1014281
21:00+16зюз5118179 0.3 1013399
2 октября, вс
вс200:00+15зюз388398 0.0 1013344
03:00+14юз2287100 0.0 101333
06:00+14з2385100 0.1 101297
09:00+15юв2376100 0.1 1011221
12:00+19юв6768100 0.0 1008701
15:00+19ю6875100 1.4 1006804
18:00+17ю3983100 2.1 1004258
21:00+15ююв51196100 4.9 1001611
3 октября, пн
пн300:00+15ююв81484100 2.6 998788
03:00+15ю5997100 7.3 996576
06:00+10з6992100 6.1 998491
09:00+10з7986100 6.4 1000879
12:00+10з6983100 0.1 1003868
15:00+10зюз5881100 0.1 1005819
18:00+9зюз6987100 0.3 1008706
21:00+9юз5980100 0.4 1010694
4 октября, вт
вт400:00+7ююз48885 0.0 1011189
03:00+6ююз499164 0.0 1012206
06:00+6ююз379375 0.0 1014162
09:00+9ююз598277 0.0 1015438
12:00+13ююз686464 0.1 10151137
15:00+14ююз576299 0.4 10161297
18:00+11ююз347660 0.3 101769
21:00+10юз41179100 0.3 1018444